Hauptseite
METAR-TAF:

METAR-TAF

Flughäfen :

Plzeň, Tschechien

Breite: 49-40-31N, Länge: 13-16-29E, Höhe: 362 m

Beobachtung

Neuester Wetterbericht von vor 14 Minuten, um 04:00 UTC
Wind 3 kt aus Nord/Nordwest, variierte zwischen West/Nordwest und Nordost
Temperatur 1°C
Luftfeuchtigkeit 100%
Luftdruck 1009 hPa
Sichtweite: 4200 m
Geschlossene Wolkendecke in der Höhe von 400 ft
Regen

METAR: LKLN 260400Z AUTO 34003KT 290V040 4200 RA OVC004 01/01 Q1009

Zeit: 06:14 (04:14 UTC)


TAF: fehlend

Wetterbeobachtungen und Prognosen von mehr als 4000 Flughäfen (METAR und TAF Bericht).

Die verfügbaren Stationen werden durch gelbe und rote Markierungen auf der Karte dargestellt.

Führen Sie die Maus auf sie, um den Namen der Station zu sehen.

Darauf klicken, um die Beobachtung von Wetterbeobachtungen und Prognosen zu sehen.

Um die Karte zu ändern : klicken Sie auf den grünen Tasten mit einem schwarzen Kreuz Zum Vergrößern, auf den grünen Button mit einem Gedankenstrich zu verkleinern, oder auf die grünen Pfeile für benachbarte Karten.


METAR-TAF: